OpenBCM V1.13 (Linux)

Packet Radio Mailbox

DB0FHN

[JN59NK Nuernberg]

 Login: GUEST





  
OZ1LQH > KEP      14.11.15 13:04l 75 Lines 3137 Bytes #999 (0) @ WW
BID : ARLK088
Read: DK3UZ GUEST DO4SMW
Subj: ARLK088 Keplerian data
Path: DB0FHN<OE2XZR<OE5XBR<OE1XAB<HG8LXL<GB7YEW<VE3UIL<IR0AAB<GB7CIP<VK6ZRT<
      VK6HGR<ON0AR<OZ5BBS
Sent: 151114/0845Z @:OZ5BBS.FYN.DNK.EU #:2952 [Odense] $:ARLK088
From: OZ1LQH@OZ5BBS.FYN.DNK.EU
To  : KEP@WW

ZCZC SK88
QST de W1AW  
Keplerian Bulletin 88  ARLK088
From ARRL Headquarters
Newington, CT  November 13, 2015
To all radio amateurs 

SB KEP ARL ARLK088
ARLK088 Keplerian data

Special thanks to Space-Track.org for the following Keplerian data.

Decode 2-line elsets with the following key:
1 AAAAAU 00  0  0 BBBBB.BBBBBBBB  .CCCCCCCC  00000-0  00000-0 0  DDDZ
2 AAAAA EEE.EEEE FFF.FFFF GGGGGGG HHH.HHHH III.IIII JJ.JJJJJJJJKKKKKZ
KEY: A-CATALOGNUM B-EPOCHTIME C-DECAY D-ELSETNUM E-INCLINATION F-RAAN
G-ECCENTRICITY H-ARGPERIGEE I-MNANOM J-MNMOTION K-ORBITNUM Z-CHECKSUM

AO-07
1  7530U 74089B   15316.91236192 -.00000040 +00000-0 +25003-4 0  9991
2  7530 101.5427 288.2543 0012243 014.9296 041.5928 12.53617769875660
AO-16
1 20439U 90005D   15317.04864906  .00000089  00000-0  48993-4 0  9990
2 20439  98.5531 251.1328 0012003  81.5863 337.3007 14.32584494348057
FO-29
1 24278U 96046B   15316.85010345 +.00000006 +00000-0 +40779-4 0  9997
2 24278 098.5633 265.6754 0351148 045.6057 341.3541 13.53059852949861
ISS
1 25544U 98067A   15317.58063396  .00011483  00000-0  17458-3 0  9992
2 25544  51.6453  58.4737 0006446 134.4604 305.7832 15.55031128971288
NO-44
1 26931U 01043C   15316.95045126 +.00000059 +00000-0 +54621-4 0  9993
2 26931 067.0496 153.3428 0006630 277.1510 082.8837 14.30358589737008
SO-50
1 27607U 02058C   15317.01106349  .00000649  00000-0  11215-3 0  9990
2 27607  64.5541 104.3076 0082456 259.9078  99.2714 14.74917536693237
CO-55
1 27844U 03031E   15316.94759995 +.00000187 +00000-0 +10476-3 0  9992
2 27844 098.6953 323.3579 0008908 226.9353 133.1079 14.21870886641532
RS-22
1 27939U 03042A   15317.40329718  .00000717  00000-0  13853-3 0  9998
2 27939  97.8596 112.8380 0011899 275.5816  84.4052 14.66213490648053
CO-58
1 28895U 05043F   15317.02952486  .00000633  00000-0  13210-3 0  9999
2 28895  97.8211 137.0643 0016913 181.7433 178.3714 14.62969845535359
CO-65
1 32785U 08021C   15316.88848987  .00001307  00000-0  15098-3 0  9999
2 32785  97.6313 354.8542 0011991 298.7437 114.2040 14.87187393408339
COMPASS 1
1 32787U 08021E   15316.85626040  .00002482  00000-0  25434-3 0  9992
2 32787  97.6331 359.8664 0011505 280.0360  79.9561 14.91298987408669
DO-64
1 32789U 08021G   15316.96384321 +.00004140 +00000-0 +32638-3 0  9996
2 32789 097.6361 014.9303 0009410 261.4479 223.7551 15.01275306409288
RS-30
1 32953U 08025A   15317.29526731  .00000010  00000-0 -13620-7 0  9990
2 32953  82.5033 241.5030 0019506 112.2810 248.0344 12.43064980339137
KKS-1
1 33499U 09002H   15317.46549862  .00000764  00000-0  12214-3 0  9990
2 33499  98.2582  97.4868 0010431  70.6405  21.6487 14.74736808365614
AO-73
1 39444U 13066AE  15316.72374433 +.00001476 +00000-0 +19333-3 0  9999
2 39444 097.7132 013.9230 0059649 012.6870 347.5827 14.80610034104806
IO-86
1 40931U 15052B   15316.76574973  .00001071  00000-0  60710-4 0  9991
2 40931   6.0022  65.0717 0012988 284.2910  75.5740 14.76374961  6742

Keplerian bulletins are transmitted twice weekly from W1AW.  The
next scheduled transmission of these data will be Tuesday, November
17, 2015, at 2330z on Baudot and BPSK31.
NNNN


Read previous mail | Read next mail


 14.07.2026 13:51:41lGo back Go up